Location: Penton Mewsey
(51.2167°N, 1.5167°W)
Time: 21:54:37
(UTC+00:00)

ATLAS 5 CENTAUR R/B - Pass Details

Date: 30 March 2020
Orbit: 543 x 1116 km, 63.4° (Epoch: 01 May)

Event Time Altitude Azimuth Distance (km) Brightness Sun altitude
Exits shadow 23:20:12 17° 41° (NE) 1,736 4.1 -33.5°
Drops below altitude 10° 23:21:20 10° 43° (NE) 2,184 4.7 -33.6°
Sets 23:23:54 0° 45° (NE) 3,203 5.6 -33.7°
